Regional Weather Roundup
Issued by NWS

Home | Current Version | Previous Version | Text Only | Print | Product List | Glossary On
Versions: 1 2 3 4 5 6 7 8 9 10 11 12 13 14 15 16 17 18 19 20 21 22 23 24 25 26 27 28 29 30 31 32 33 34 35 36 37 38 39 40 41 42 43 44 45 46 47 48 49 50
482
ASUS44 KJAN 281103
RWRMS

MISSISSIPPI HOURLY WEATHER ROUNDUP
NATIONAL WEATHER SERVICE JACKSON MS
500 AM CST SAT FEB 28 2015

NOTE: "FAIR: INDICATES FEW OR NO CLOUDS BELOW 12,000 FEET WITH NO
SIGNIFICANT WEATHER AND/OR OBSTRUCTIONS TO VISIBILITY.

MSZ001>002-007>008-010>013-018>021-025>028-034>036-281200-
NORTHWEST MISSISSIPPI

CITY           SKY/WX    TMP DP  RH WIND       PRES   REMARKS
CLARKSDALE     CLOUDY    30  21  69 N12       30.52S WCI  21
CLEVELAND      CLOUDY    31  24  76 NE9       30.49S WCI  22
GREENWOOD        N/A    N/A N/A N/A MISG      30.49R
GREENVILLE     CLOUDY    31  23  72 NE13      30.47F WCI  21
OLIVE BRANCH   CLOUDY    28  18  64 NE8       30.53R WCI  20
OXFORD         FAIR      30  16  55 NE6       30.51R WCI  24
TUNICA         PTSUNNY   30  21  69 N10       30.54R WCI  21
$$

MSZ003>006-009-014>017-022>024-029>033-037>039-281200-
NORTHEAST MISSISSIPPI

CITY           SKY/WX    TMP DP  RH WIND       PRES   REMARKS
COLUMBUS AFB   NOT AVBL
CORINTH        CLOUDY    30  12  47 NE6       30.52R WCI  24
GOLDN TRIANGLE CLOUDY    34  19  55 NE5       30.47R WCI  30
STARKVILLE     CLOUDY    34  21  60 NE5       30.48S WCI  30
TUPELO         CLOUDY    32  16  51 NE9       30.50R WCI  24
$$

MSZ040-058-281200-
CENTRAL MISSISSIPPI

CITY           SKY/WX    TMP DP  RH WIND       PRES   REMARKS
JACKSON INTL   PTCLDY    33  21  61 CALM      30.44S
JACKSON HAWKNS PTCLDY    35  20  54 E6        30.44S WCI  30
MERIDIAN KEY   CLEAR     34  20  56 NE7       30.46R WCI  28
MERIDIAN NAS   PTCLDY    34  19  54 CALM      30.46S
VICKSBURG      MOCLDY    34  27  75 NE7       30.45F WCI  28
$$

MSZ059>079-281200-
SOUTH MISSISSIPPI

CITY           SKY/WX    TMP DP  RH WIND       PRES   REMARKS
BROOKHAVEN     FAIR      32  25  74 CALM      30.44R
HATTIESBURG    CLEAR     33  23  66 CALM      30.45S
MCCOMB         CLEAR     34  22  61 E6        30.41R WCI  29
NATCHEZ        CLEAR     28  23  80 NE5       30.41F WCI  23
PINE BELT      CLEAR     32  19  59 NE5       30.43S WCI  27
$$

MSZ080>082-281200-
COASTAL MISSISSIPPI

CITY           SKY/WX    TMP DP  RH WIND       PRES   REMARKS
BILOXI         NOT AVBL
PASCAGOULA     PTCLDY    37  28  70 N9        30.40R WCI  30
GULFPORT       CLEAR     39  25  57 NE9       30.40R WCI  33
$$



USA.gov is the U.S. government's official web portal to all federal, state and local government web resources and services.